Weather History for KOKM - March, 2014

Change the Weather History Date:

Tuesday, March 18, 2014

  Actual Average (KMKO) Record (KMKO)
Temperature  
Mean Temperature 62 °F -  
Max Temperature 77 °F 60 °F 82 °F (2009)
Min Temperature 46 °F 39 °F 41 °F (2001)
Degree Days  
Heating Degree Days 4    
Growing Degree Days 12 (Base 50)    
Moisture  
Dew Point 34 °F    
Average Humidity 43    
Maximum Humidity 64    
Minimum Humidity 21    
Precipitation  
Precipitation 0.00 in - - ()
Sea Level Pressure  
Sea Level Pressure 29.57 in    
Wind  
Wind Speed 17 mph (SSW)    
Max Wind Speed 26 mph    
Max Gust Speed 41 mph    
Visibility 10 miles    
Events      
Averages and records for this station are not official NWS values.
T = Trace of Precipitation, MM = Missing Value Source: NWS Daily Summary

Daily Weather History Graph

Daily Weather History Graph

Search for Another Location

Airport or City:

Trip Planner

Search our weather history database for the weather conditions in past years. The results will help you decide how hot, cold, wet, or windy it might be!

Date:

Astronomy

Mar. 18, 2014 Rise Set
Actual Time 7:30 AM CDT 7:33 PM CDT
Civil Twilight 7:04 AM CDT 7:59 PM CDT
Nautical Twilight 6:35 AM CDT 8:29 PM CDT
Astronomical Twilight 6:05 AM CDT 8:59 PM CDT
Moon 9:46 PM CDT (3/18) 8:24 AM CDT (3/18)
Length of Visible Light 12h 54m
Length of Day
12h 03m
Waning Gibbous, 96% of the Moon is Illuminated
Mar 18
Waning Gibbous
Mar 23
Last Quarter
Mar 30
New
Apr 7
First Quarter
Apr 15
Full

Hourly Weather History & Observations

Time (CDT) Temp. Windchill Dew Point Humidity Pressure Visibility Wind Dir Wind Speed Gust Speed Precip Events Conditions
12:15 AM 46.8 °F - 28.0 °F 48% 29.64 in 10.0 mi SSE 11.5 mph - N/A   Clear
12:35 AM 46.4 °F 41.1 °F 28.0 °F 49% 29.64 in 10.0 mi SE 11.5 mph - N/A   Clear
12:55 AM 46.4 °F 40.7 °F 28.4 °F 50% 29.63 in 10.0 mi SE 12.7 mph - N/A   Clear
1:15 AM 46.6 °F - 28.4 °F 49% 29.62 in 10.0 mi SSE 15.0 mph 23.0 mph N/A   Clear
1:35 AM 46.9 °F - 28.4 °F 49% 29.61 in 10.0 mi SE 16.1 mph 25.3 mph N/A   Clear
1:55 AM 46.4 °F 40.4 °F 28.9 °F 51% 29.60 in 10.0 mi SE 13.8 mph 20.7 mph N/A   Clear
2:15 AM 46.6 °F - 29.1 °F 51% 29.61 in 10.0 mi SE 12.7 mph 19.6 mph N/A   Clear
2:35 AM 46.2 °F 39.5 °F 30.0 °F 53% 29.60 in 10.0 mi SE 16.1 mph 20.7 mph N/A   Clear
2:55 AM 47.1 °F - 30.2 °F 52% 29.59 in 10.0 mi SSE 12.7 mph 23.0 mph N/A   Clear
3:15 AM 46.6 °F - 30.7 °F 54% 29.59 in 10.0 mi SE 15.0 mph 19.6 mph N/A   Clear
3:35 AM 46.6 °F - 31.1 °F 55% 29.57 in 10.0 mi SSE 15.0 mph 24.2 mph N/A   Clear
3:55 AM 46.9 °F - 31.8 °F 56% 29.56 in 10.0 mi SSE 16.1 mph 24.2 mph N/A   Clear
4:15 AM 47.3 °F - 32.0 °F 55% 29.55 in 10.0 mi SSE 21.9 mph 27.6 mph N/A   Clear
4:35 AM 47.3 °F - 32.7 °F 57% 29.53 in 10.0 mi South 18.4 mph 31.1 mph N/A   Clear
4:55 AM 47.7 °F - 33.3 °F 57% 29.53 in 10.0 mi South 25.3 mph 32.2 mph N/A   Clear
5:15 AM 48.2 °F - 34.2 °F 58% 29.52 in 10.0 mi South 26.5 mph 39.1 mph N/A   Clear
5:35 AM 48.6 °F - 34.7 °F 59% 29.52 in 10.0 mi South 24.2 mph 35.7 mph N/A   Clear
5:55 AM 48.4 °F - 34.7 °F 59% 29.52 in 10.0 mi South 24.2 mph 34.5 mph N/A   Clear
6:15 AM 48.0 °F - 35.4 °F 62% 29.51 in 10.0 mi South 19.6 mph 34.5 mph N/A   Clear
6:35 AM 47.7 °F - 35.8 °F 63% 29.50 in 10.0 mi South 20.7 mph 31.1 mph N/A   Clear
6:55 AM 47.8 °F - 36.0 °F 63% 29.50 in 10.0 mi South 23.0 mph 35.7 mph N/A   Clear
7:15 AM 47.5 °F - 36.0 °F 64% 29.50 in 10.0 mi South 21.9 mph 31.1 mph N/A   Clear
7:35 AM 47.8 °F - 35.6 °F 63% 29.50 in 10.0 mi South 21.9 mph 31.1 mph N/A   Clear
7:55 AM 48.4 °F - 35.6 °F 61% 29.50 in 10.0 mi South 19.6 mph 32.2 mph N/A   Clear
8:15 AM 49.1 °F - 35.4 °F 59% 29.50 in 10.0 mi South 21.9 mph 31.1 mph N/A   Clear
8:35 AM 49.6 °F - 35.8 °F 59% 29.51 in 10.0 mi South 18.4 mph 35.7 mph N/A   Clear
8:55 AM 50.2 °F - 35.8 °F 58% 29.51 in 10.0 mi South 17.3 mph 33.4 mph N/A   Clear
9:15 AM 51.1 °F - 36.0 °F 56% 29.51 in 10.0 mi South 16.1 mph 28.8 mph N/A   Clear
9:35 AM 53.2 °F - 36.0 °F 52% 29.51 in 10.0 mi South 24.2 mph 33.4 mph N/A   Clear
9:55 AM 54.1 °F - 36.0 °F 50% 29.51 in 10.0 mi South 26.5 mph 36.8 mph N/A   Clear
10:15 AM 54.9 °F - 36.3 °F 50% 29.51 in 10.0 mi South 23.0 mph 40.3 mph N/A   Clear
10:35 AM 55.4 °F - 36.9 °F 50% 29.51 in 10.0 mi South 20.7 mph 35.7 mph N/A   Clear
10:55 AM 56.5 °F - 37.4 °F 49% 29.52 in 10.0 mi South 25.3 mph 34.5 mph N/A   Clear
11:15 AM 57.9 °F - 37.8 °F 47% 29.52 in 10.0 mi South 23.0 mph 35.7 mph N/A   Clear
11:35 AM 59.7 °F - 38.3 °F 45% 29.51 in 10.0 mi South 23.0 mph 33.4 mph N/A   Clear
11:55 AM 61.2 °F - 38.7 °F 43% 29.51 in 10.0 mi South 21.9 mph 33.4 mph N/A   Clear
12:15 PM 62.2 °F - 37.8 °F 40% 29.50 in 10.0 mi South 20.7 mph 31.1 mph N/A   Clear
12:35 PM 63.5 °F - 37.4 °F 38% 29.50 in 10.0 mi South 19.6 mph 29.9 mph N/A   Clear
12:55 PM 64.9 °F - 37.6 °F 36% 29.48 in 10.0 mi South 19.6 mph 33.4 mph N/A   Clear
1:15 PM 66.0 °F - 36.3 °F 33% 29.48 in 10.0 mi SSW 21.9 mph 38.0 mph N/A   Clear
1:35 PM 67.8 °F - 36.7 °F 32% 29.48 in 10.0 mi SW 21.9 mph 34.5 mph N/A   Clear
1:55 PM 68.7 °F - 36.9 °F 31% 29.48 in 10.0 mi SSW 24.2 mph 36.8 mph N/A   Clear
2:15 PM 68.9 °F - 36.7 °F 31% 29.48 in 10.0 mi SSW 21.9 mph 36.8 mph N/A   Clear
2:35 PM 70.0 °F - 36.9 °F 30% 29.48 in 10.0 mi SSW 16.1 mph 34.5 mph N/A   Clear
2:55 PM 71.6 °F - 37.9 °F 29% 29.48 in 10.0 mi SSW 21.9 mph 34.5 mph N/A   Clear
3:15 PM 73.6 °F - 37.8 °F 27% 29.48 in 10.0 mi SSW 19.6 mph 25.3 mph N/A   Clear
3:35 PM 74.5 °F - 35.4 °F 24% 29.48 in 10.0 mi SSW 18.4 mph 31.1 mph N/A   Clear
3:55 PM 75.6 °F - 36.1 °F 24% 29.48 in 10.0 mi SW 13.8 mph 26.5 mph N/A   Clear
4:15 PM 77.9 °F - 34.9 °F 21% 29.48 in 10.0 mi WSW 15.0 mph 25.3 mph N/A   Clear
4:35 PM 75.7 °F - 35.2 °F 23% 29.50 in 10.0 mi West 21.9 mph 29.9 mph N/A   Clear
4:55 PM 74.5 °F - 33.8 °F 23% 29.51 in 10.0 mi WSW 18.4 mph 27.6 mph N/A   Clear
5:15 PM 73.6 °F - 34.7 °F 24% 29.51 in 10.0 mi WSW 16.1 mph 23.0 mph N/A   Clear
5:35 PM 73.2 °F - 35.2 °F 25% 29.52 in 10.0 mi West 12.7 mph 26.5 mph N/A   Clear
5:55 PM 72.0 °F - 34.3 °F 25% 29.54 in 10.0 mi West 18.4 mph 26.5 mph N/A   Clear
6:15 PM 71.6 °F - 34.7 °F 26% 29.55 in 10.0 mi WSW 15.0 mph 20.7 mph N/A   Clear
6:35 PM 70.9 °F - 35.2 °F 27% 29.56 in 10.0 mi West 9.2 mph 17.3 mph N/A   Clear
6:55 PM 70.3 °F - 35.2 °F 28% 29.58 in 10.0 mi West 11.5 mph 19.6 mph N/A   Clear
7:15 PM 69.8 °F - 32.5 °F 25% 29.59 in 10.0 mi West 11.5 mph 19.6 mph N/A   Clear
7:35 PM 68.9 °F - 31.6 °F 25% 29.61 in 10.0 mi West 8.1 mph 25.3 mph N/A   Clear
7:55 PM 67.1 °F - 32.0 °F 27% 29.63 in 10.0 mi West 6.9 mph - N/A   Clear
8:15 PM 65.5 °F - 32.0 °F 29% 29.65 in 10.0 mi West 5.8 mph - N/A   Clear
8:35 PM 64.4 °F - 32.0 °F 30% 29.67 in 10.0 mi WSW 5.8 mph - N/A   Clear
8:55 PM 65.7 °F - 30.2 °F 27% 29.70 in 10.0 mi West 16.1 mph 28.8 mph N/A   Clear
9:15 PM 63.0 °F - 35.8 °F 36% 29.75 in 10.0 mi WNW 25.3 mph 35.7 mph N/A   Clear
9:35 PM 59.2 °F - 36.5 °F 43% 29.78 in 10.0 mi WNW 24.2 mph 36.8 mph N/A   Clear
9:55 PM 57.6 °F - 36.0 °F 44% 29.79 in 10.0 mi NW 15.0 mph 21.9 mph N/A   Clear
10:15 PM 56.5 °F - 34.2 °F 43% 29.81 in 10.0 mi WNW 16.1 mph 33.4 mph N/A   Mostly Cloudy
10:35 PM 54.3 °F - 32.9 °F 44% 29.83 in 10.0 mi WNW 25.3 mph 41.4 mph N/A   Scattered Clouds
10:55 PM 52.9 °F - 32.4 °F 46% 29.84 in 10.0 mi WNW 19.6 mph 29.9 mph N/A   Clear
11:15 PM 51.8 °F - 32.4 °F 48% 29.85 in 10.0 mi WNW 13.8 mph 27.6 mph N/A   Clear
11:35 PM 50.2 °F - 31.1 °F 48% 29.86 in 10.0 mi WNW 23.0 mph 34.5 mph N/A   Clear
11:55 PM 49.1 °F - 31.1 °F 50% 29.88 in 10.0 mi WNW 20.7 mph 34.5 mph N/A   Clear